Location: Newark
(46.9000°N, 28.3500°E)
Time: 11:53:10
(UTC+00:00)

Vanguard 1 Rocket - Pass Details

Date: 30 August 2019
Orbit: 651 x 4225 km, 34.3° (Epoch: 20 September)

Event Time Altitude Azimuth Distance (km) Brightness Sun altitude
Rises 23:31:30 0° 241° (WSW) 3,261 - -31.2°
Reaches altitude 10° 23:34:45 10° 221° (SW) 2,128 - -31.0°
Maximum altitude 23:37:48 18° 178° (S) 1,602 - -30.7°
Drops below altitude 10° 23:40:49 10° 135° (SE) 2,085 - -30.5°
Exits shadow 23:43:44 - 116° (ESE) 3,085 10.2 -30.3°
Sets 23:43:58 0° 115° (ESE) 3,167 10.2 -30.3°
